This is the latest recevied weather packets stored in our database for station/object HB9FHL-13. If no packets are shown the sender has not sent any weather packets the latest 10 day(s).
| Time | Temp. | Humidity | Pressure | Rain* | Wind** | Luminosity | Snow |
|---|---|---|---|---|---|---|---|
| 1777924145 | 11.11° C | - | 1014.5 hPa | 0 mm | - | - | - |
| 1777923845 | 11.67° C | - | 1010.8 hPa | 0 mm | - | - | - |
| 1777923544 | 11.67° C | - | 1010.9 hPa | 0 mm | - | - | - |
| 1777923244 | 12.22° C | - | 1014.3 hPa | 0 mm | - | - | - |
| 1777922943 | 12.78° C | - | 1012.9 hPa | 0 mm | - | - | - |
| 1777922643 | 11.67° C | - | 1012 hPa | 0 mm | - | - | - |
| 1777922342 | 11.67° C | - | 1011.5 hPa | 0 mm | - | - | - |
| 1777922042 | 12.78° C | - | 1012.9 hPa | 0 mm | - | - | - |
| 1777921741 | 12.78° C | - | 1012.2 hPa | 0 mm | - | - | - |
| 1777921441 | 12.22° C | - | 1010.4 hPa | 0 mm | - | - | - |
| 1777921140 | 12.22° C | - | 1013.5 hPa | 0 mm | - | - | - |
| 1777920840 | 12.78° C | - | 1015 hPa | 0 mm | - | - | - |
| 1777920540 | 12.78° C | - | 1015.9 hPa | 0 mm | - | - | - |
| 1777920239 | 12.78° C | - | 1013.7 hPa | 0 mm | - | - | - |
| 1777919939 | 12.78° C | - | 1011 hPa | 0 mm | - | - | - |
| 1777919637 | 13.33° C | - | 1013.6 hPa | 0 mm | - | - | - |
| 1777919337 | 13.33° C | - | 1012.7 hPa | 0 mm | - | - | - |
| 1777919036 | 12.78° C | - | 1016.4 hPa | 0 mm | - | - | - |
| 1777918736 | 13.33° C | - | 1014.4 hPa | 0 mm | - | - | - |
| 1777918435 | 13.33° C | - | 1010.7 hPa | 0 mm | - | - | - |
| 1777918135 | 13.33° C | - | 1010.4 hPa | 0 mm | - | - | - |
| 1777917834 | 13.33° C | - | 1014.4 hPa | 0 mm | - | - | - |
| 1777917534 | 13.33° C | - | 1015.3 hPa | 0 mm | - | - | - |
| 1777917233 | 13.33° C | - | 1011.8 hPa | 0 mm | - | - | - |
| 1777916930 | 13.89° C | - | 1014.5 hPa | 0 mm | - | - | - |
* Rain since midnight (hover to see other rain measurements)
** Current wind speed in m/s (hover to see current wind gust speed)